TimeMDT,TemperatureF,Dew PointF,Humidity,Sea Level PressureIn,VisibilityMPH,Wind Direction,Wind SpeedMPH,Gust SpeedMPH,PrecipitationIn,Events,Conditions,WindDirDegrees,DateUTC
12:52 AM,28.9,24.1,82,30.09,10.0,Calm,Calm,-,N/A,,Clear,0,2013-09-28 06:52:00
1:52 AM,28.9,24.1,82,30.11,10.0,SE,3.5,-,N/A,,Clear,130,2013-09-28 07:52:00
2:52 AM,28.0,23.0,81,30.11,10.0,Calm,Calm,-,N/A,,Clear,0,2013-09-28 08:52:00
3:52 AM,26.1,21.9,84,30.14,10.0,West,6.9,-,N/A,,Clear,280,2013-09-28 09:52:00
4:52 AM,24.1,19.9,84,30.19,10.0,SW,4.6,-,N/A,,Clear,230,2013-09-28 10:52:00
5:52 AM,24.1,19.0,81,30.22,10.0,WSW,6.9,-,N/A,,Clear,240,2013-09-28 11:52:00
6:52 AM,21.0,18.0,88,30.27,10.0,ESE,3.5,-,N/A,,Clear,120,2013-09-28 12:52:00
7:52 AM,26.1,21.0,81,30.29,10.0,SW,3.5,-,N/A,,Clear,230,2013-09-28 13:52:00
8:52 AM,35.1,24.1,64,30.29,10.0,SSW,4.6,-,N/A,,Clear,200,2013-09-28 14:52:00
9:52 AM,39.9,21.0,47,30.31,10.0,Calm,Calm,-,N/A,,Clear,0,2013-09-28 15:52:00
10:52 AM,44.1,19.9,38,30.28,10.0,South,4.6,-,N/A,,Clear,180,2013-09-28 16:52:00
11:52 AM,46.9,18.0,32,30.26,10.0,ESE,3.5,-,N/A,,Clear,110,2013-09-28 17:52:00
12:52 PM,52.0,16.0,24,30.24,10.0,Variable,3.5,-,N/A,,Clear,0,2013-09-28 18:52:00
1:52 PM,54.0,14.0,21,30.20,10.0,West,4.6,-,N/A,,Clear,280,2013-09-28 19:52:00
2:52 PM,55.9,12.9,18,30.19,10.0,Variable,3.5,-,N/A,,Clear,0,2013-09-28 20:52:00
3:52 PM,57.0,15.1,19,30.19,10.0,Calm,Calm,-,N/A,,Clear,0,2013-09-28 21:52:00
4:52 PM,60.1,18.0,20,30.18,10.0,NE,4.6,-,N/A,,Clear,50,2013-09-28 22:52:00
5:52 PM,59.0,18.0,20,30.18,10.0,Calm,Calm,-,N/A,,Clear,0,2013-09-28 23:52:00
6:52 PM,54.0,25.0,33,30.22,10.0,Calm,Calm,-,N/A,,Clear,0,2013-09-29 00:52:00
7:52 PM,46.9,26.1,44,30.23,10.0,East,4.6,-,N/A,,Clear,80,2013-09-29 01:52:00
8:52 PM,43.0,26.1,51,30.24,10.0,ENE,6.9,-,N/A,,Clear,60,2013-09-29 02:52:00
9:52 PM,41.0,27.0,57,30.23,10.0,East,3.5,-,N/A,,Clear,100,2013-09-29 03:52:00
10:52 PM,35.1,28.0,76,30.24,10.0,South,4.6,-,N/A,,Clear,190,2013-09-29 04:52:00
11:52 PM,33.1,27.0,78,30.25,10.0,Calm,Calm,-,N/A,,Clear,0,2013-09-29 05:52:00